Time,TemperatureF,DewpointF,PressureIn,WindDirection,WindDirectionDegrees,WindSpeedMPH,WindSpeedGustMPH,Humidity,HourlyPrecipIn,Conditions,Clouds,dailyrainin,SoftwareType,DateUTC
2013-07-27 00:07:00,64.5,62.0,29.19,South,170,0.0,1.0,92,0.01,,,0.00,weatherlink.com 1.10,2013-07-27 04:07:00,
2013-07-27 00:22:00,64.2,62.0,29.20,SSE,159,0.0,1.0,92,0.01,,,0.00,weatherlink.com 1.10,2013-07-27 04:22:00,
2013-07-27 00:37:00,64.2,62.0,29.19,SSE,160,0.0,2.0,92,0.00,,,0.00,weatherlink.com 1.10,2013-07-27 04:37:00,
2013-07-27 00:52:00,64.1,62.0,29.19,South,190,1.0,3.0,91,0.00,,,0.00,weatherlink.com 1.10,2013-07-27 04:52:00,
2013-07-27 01:07:00,64.0,61.0,29.18,SSE,167,0.0,4.0,91,0.00,,,0.00,weatherlink.com 1.10,2013-07-27 05:07:00,
2013-07-27 01:22:00,63.7,61.0,29.17,South,176,1.0,5.0,91,0.00,,,0.00,weatherlink.com 1.10,2013-07-27 05:22:00,
2013-07-27 01:37:00,63.8,62.0,29.17,SSE,158,1.0,4.0,92,0.00,,,0.00,weatherlink.com 1.10,2013-07-27 05:37:00,
2013-07-27 01:52:00,64.3,62.0,29.18,SSW,198,2.0,9.0,92,0.00,,,0.00,weatherlink.com 1.10,2013-07-27 05:52:00,
2013-07-27 02:08:00,64.8,62.0,29.18,SW,218,3.0,8.0,91,0.00,,,0.00,weatherlink.com 1.10,2013-07-27 06:08:00,
2013-07-27 02:23:00,64.5,62.0,29.17,South,191,3.0,5.0,91,0.00,,,0.00,weatherlink.com 1.10,2013-07-27 06:23:00,
2013-07-27 02:38:00,64.4,62.0,29.17,SSE,163,2.0,6.0,91,0.00,,,0.00,weatherlink.com 1.10,2013-07-27 06:38:00,
2013-07-27 02:53:00,64.1,62.0,29.16,WSW,243,4.0,9.0,91,0.00,,,0.00,weatherlink.com 1.10,2013-07-27 06:53:00,
2013-07-27 03:08:00,64.1,62.0,29.16,SSW,205,1.0,7.0,91,0.00,,,0.00,weatherlink.com 1.10,2013-07-27 07:08:00,
2013-07-27 03:23:00,63.9,61.0,29.16,South,188,2.0,3.0,91,0.00,,,0.00,weatherlink.com 1.10,2013-07-27 07:23:00,
2013-07-27 03:38:00,64.1,62.0,29.16,WSW,240,5.0,6.0,92,0.00,,,0.00,weatherlink.com 1.10,2013-07-27 07:38:00,
2013-07-27 03:53:00,64.3,62.0,29.16,SW,222,1.0,7.0,91,0.00,,,0.00,weatherlink.com 1.10,2013-07-27 07:53:00,
2013-07-27 04:08:00,64.2,62.0,29.16,SSE,158,0.0,4.0,91,0.00,,,0.00,weatherlink.com 1.10,2013-07-27 08:08:00,
2013-07-27 04:23:00,64.4,62.0,29.16,SSW,211,1.0,6.0,91,0.00,,,0.00,weatherlink.com 1.10,2013-07-27 08:23:00,
2013-07-27 04:38:00,64.5,62.0,29.16,SW,231,4.0,6.0,91,0.00,,,0.00,weatherlink.com 1.10,2013-07-27 08:38:00,
2013-07-27 04:53:00,64.4,62.0,29.16,South,187,0.0,5.0,90,0.00,,,0.00,weatherlink.com 1.10,2013-07-27 08:53:00,
2013-07-27 05:08:00,64.3,62.0,29.16,SW,214,1.0,3.0,91,0.00,,,0.00,weatherlink.com 1.10,2013-07-27 09:08:00,
2013-07-27 05:23:00,64.4,62.0,29.15,South,188,0.0,3.0,91,0.00,,,0.00,weatherlink.com 1.10,2013-07-27 09:23:00,
2013-07-27 05:38:00,64.5,62.0,29.15,South,181,1.0,3.0,91,0.00,,,0.00,weatherlink.com 1.10,2013-07-27 09:38:00,
2013-07-27 05:53:00,64.7,62.0,29.15,SW,221,1.0,3.0,91,0.00,,,0.00,weatherlink.com 1.10,2013-07-27 09:53:00,
2013-07-27 06:08:00,64.8,62.0,29.15,South,170,1.0,3.0,90,0.00,,,0.00,weatherlink.com 1.10,2013-07-27 10:08:00,
2013-07-27 06:23:00,64.7,62.0,29.15,South,190,1.0,4.0,90,0.00,,,0.00,weatherlink.com 1.10,2013-07-27 10:23:00,
2013-07-27 06:38:00,64.7,62.0,29.16,South,177,2.0,3.0,91,0.00,,,0.00,weatherlink.com 1.10,2013-07-27 10:38:00,
2013-07-27 06:53:00,64.8,62.0,29.16,SSW,206,1.0,3.0,91,0.00,,,0.00,weatherlink.com 1.10,2013-07-27 10:53:00,
2013-07-27 07:08:00,64.8,62.0,29.16,South,177,1.0,4.0,91,0.00,,,0.00,weatherlink.com 1.10,2013-07-27 11:08:00,
2013-07-27 07:23:00,65.0,62.0,29.15,SW,226,1.0,5.0,90,0.00,,,0.00,weatherlink.com 1.10,2013-07-27 11:23:00,
2013-07-27 07:38:00,64.9,62.0,29.16,WSW,243,1.0,5.0,90,0.00,,,0.00,weatherlink.com 1.10,2013-07-27 11:38:00,
2013-07-27 07:53:00,64.9,62.0,29.16,South,188,1.0,3.0,90,0.00,,,0.00,weatherlink.com 1.10,2013-07-27 11:53:00,
2013-07-27 08:08:00,64.9,62.0,29.16,South,180,1.0,3.0,91,0.00,,,0.00,weatherlink.com 1.10,2013-07-27 12:08:00,
2013-07-27 08:23:00,64.9,62.0,29.16,SSW,208,1.0,4.0,91,0.00,,,0.00,weatherlink.com 1.10,2013-07-27 12:23:00,
2013-07-27 08:38:00,65.0,62.0,29.16,SSE,162,2.0,3.0,91,0.00,,,0.00,weatherlink.com 1.10,2013-07-27 12:38:00,
2013-07-27 08:53:00,65.3,62.0,29.15,SW,236,2.0,6.0,90,0.00,,,0.00,weatherlink.com 1.10,2013-07-27 12:53:00,
2013-07-27 09:08:00,65.5,63.0,29.15,SSW,207,0.0,4.0,90,0.00,,,0.00,weatherlink.com 1.10,2013-07-27 13:08:00,
2013-07-27 09:23:00,65.3,62.0,29.16,SSW,207,3.0,6.0,90,0.00,,,0.00,weatherlink.com 1.10,2013-07-27 13:23:00,
2013-07-27 09:38:00,65.5,63.0,29.15,SW,232,2.0,5.0,90,0.00,,,0.00,weatherlink.com 1.10,2013-07-27 13:38:00,
2013-07-27 09:53:00,67.2,64.0,29.15,SSW,198,3.0,4.0,88,0.00,,,0.00,weatherlink.com 1.10,2013-07-27 13:53:00,
2013-07-27 10:08:00,67.3,63.0,29.14,South,188,1.0,5.0,87,0.00,,,0.00,weatherlink.com 1.10,2013-07-27 14:08:00,
2013-07-27 10:23:00,68.4,63.0,29.14,SSE,165,1.0,4.0,84,0.00,,,0.00,weatherlink.com 1.10,2013-07-27 14:23:00,
2013-07-27 10:38:00,69.6,64.0,29.14,SSW,211,3.0,5.0,81,0.00,,,0.00,weatherlink.com 1.10,2013-07-27 14:38:00,
2013-07-27 10:53:00,70.0,63.0,29.13,SSW,197,1.0,4.0,79,0.00,,,0.00,weatherlink.com 1.10,2013-07-27 14:53:00,
2013-07-27 11:08:00,70.9,63.0,29.12,South,172,2.0,4.0,77,0.00,,,0.00,weatherlink.com 1.10,2013-07-27 15:08:00,
2013-07-27 11:23:00,71.8,64.0,29.12,SSW,207,1.0,6.0,75,0.00,,,0.00,weatherlink.com 1.10,2013-07-27 15:23:00,
2013-07-27 11:38:00,72.5,63.0,29.12,SSE,162,0.0,6.0,72,0.00,,,0.00,weatherlink.com 1.10,2013-07-27 15:38:00,
2013-07-27 11:53:00,74.4,63.0,29.11,SW,222,2.0,5.0,67,0.00,,,0.00,weatherlink.com 1.10,2013-07-27 15:53:00,
2013-07-27 12:09:00,74.9,62.0,29.11,SW,231,4.0,5.0,64,0.00,,,0.00,weatherlink.com 1.10,2013-07-27 16:09:00,
2013-07-27 12:24:00,74.9,62.0,29.10,ENE,63,1.0,7.0,65,0.00,,,0.00,weatherlink.com 1.10,2013-07-27 16:24:00,
2013-07-27 12:39:00,77.7,63.0,29.09,SSW,201,4.0,4.0,60,0.00,,,0.00,weatherlink.com 1.10,2013-07-27 16:39:00,
2013-07-27 12:54:00,77.2,60.0,29.09,WSW,238,2.0,6.0,56,0.00,,,0.00,weatherlink.com 1.10,2013-07-27 16:54:00,
2013-07-27 13:09:00,77.8,60.0,29.08,South,186,3.0,7.0,55,0.00,,,0.00,weatherlink.com 1.10,2013-07-27 17:09:00,
2013-07-27 13:24:00,77.3,60.0,29.08,West,274,3.0,6.0,56,0.00,,,0.00,weatherlink.com 1.10,2013-07-27 17:24:00,
2013-07-27 13:39:00,76.2,59.0,29.07,SW,236,1.0,5.0,56,0.00,,,0.00,weatherlink.com 1.10,2013-07-27 17:39:00,
2013-07-27 13:54:00,77.9,60.0,29.07,NNE,33,2.0,6.0,55,0.00,,,0.00,weatherlink.com 1.10,2013-07-27 17:54:00,
2013-07-27 14:09:00,77.3,59.0,29.06,NW,321,1.0,7.0,54,0.00,,,0.00,weatherlink.com 1.10,2013-07-27 18:09:00,
2013-07-27 14:24:00,76.7,61.0,29.06,WSW,245,3.0,5.0,58,0.00,,,0.00,weatherlink.com 1.10,2013-07-27 18:24:00,
2013-07-27 14:39:00,77.3,60.0,29.05,WSW,243,2.0,5.0,56,0.00,,,0.00,weatherlink.com 1.10,2013-07-27 18:39:00,
2013-07-27 14:55:00,75.5,60.0,29.06,SW,236,1.0,6.0,59,0.00,,,0.00,weatherlink.com 1.10,2013-07-27 18:55:00,
2013-07-27 15:09:00,73.5,60.0,29.06,WSW,246,1.0,6.0,63,0.00,,,0.00,weatherlink.com 1.10,2013-07-27 19:09:00,
2013-07-27 15:24:00,70.1,61.0,29.07,SW,235,8.0,15.0,72,0.00,,,0.00,weatherlink.com 1.10,2013-07-27 19:24:00,
2013-07-27 15:39:00,69.6,62.0,29.07,WNW,290,4.0,12.0,78,0.00,,,0.00,weatherlink.com 1.10,2013-07-27 19:39:00,
2013-07-27 15:54:00,68.3,61.0,29.07,SW,233,4.0,12.0,78,0.00,,,0.00,weatherlink.com 1.10,2013-07-27 19:54:00,
2013-07-27 16:09:00,68.1,61.0,29.07,West,266,3.0,7.0,79,0.00,,,0.00,weatherlink.com 1.10,2013-07-27 20:09:00,
2013-07-27 16:24:00,68.4,61.0,29.07,NE,37,2.0,6.0,77,0.00,,,0.00,weatherlink.com 1.10,2013-07-27 20:24:00,
2013-07-27 16:39:00,68.6,61.0,29.06,WNW,285,1.0,7.0,77,0.00,,,0.00,weatherlink.com 1.10,2013-07-27 20:39:00,
2013-07-27 16:54:00,72.1,62.0,29.06,ESE,102,3.0,9.0,70,0.00,,,0.00,weatherlink.com 1.10,2013-07-27 20:54:00,
2013-07-27 17:09:00,73.5,61.0,29.07,NNE,15,3.0,8.0,64,0.00,,,0.00,weatherlink.com 1.10,2013-07-27 21:09:00,
2013-07-27 17:24:00,72.6,60.0,29.07,SSW,203,2.0,6.0,65,0.00,,,0.00,weatherlink.com 1.10,2013-07-27 21:24:00,
2013-07-27 17:39:00,72.0,60.0,29.06,WSW,237,5.0,7.0,67,0.00,,,0.00,weatherlink.com 1.10,2013-07-27 21:39:00,
2013-07-27 17:54:00,72.6,60.0,29.07,West,278,3.0,14.0,65,0.00,,,0.00,weatherlink.com 1.10,2013-07-27 21:54:00,
2013-07-27 18:09:00,71.0,59.0,29.07,West,272,2.0,10.0,67,0.00,,,0.00,weatherlink.com 1.10,2013-07-27 22:09:00,
2013-07-27 18:24:00,69.1,58.0,29.07,WSW,248,7.0,11.0,68,0.00,,,0.00,weatherlink.com 1.10,2013-07-27 22:24:00,
2013-07-27 18:39:00,67.9,59.0,29.07,NW,305,3.0,10.0,72,0.00,,,0.00,weatherlink.com 1.10,2013-07-27 22:39:00,
2013-07-27 18:54:00,66.7,57.0,29.08,WSW,249,2.0,14.0,72,0.00,,,0.00,weatherlink.com 1.10,2013-07-27 22:54:00,
2013-07-27 19:09:00,66.2,57.0,29.08,West,278,5.0,9.0,72,0.00,,,0.00,weatherlink.com 1.10,2013-07-27 23:09:00,
2013-07-27 19:24:00,66.2,56.0,29.09,WSW,246,5.0,12.0,70,0.00,,,0.00,weatherlink.com 1.10,2013-07-27 23:24:00,
2013-07-27 19:39:00,66.8,56.0,29.09,SW,236,1.0,8.0,69,0.00,,,0.00,weatherlink.com 1.10,2013-07-27 23:39:00,
2013-07-27 19:54:00,66.1,56.0,29.10,WSW,249,5.0,11.0,70,0.00,,,0.00,weatherlink.com 1.10,2013-07-27 23:54:00,
2013-07-27 20:09:00,64.8,56.0,29.11,West,277,3.0,13.0,72,0.00,,,0.00,weatherlink.com 1.10,2013-07-28 00:09:00,
2013-07-27 20:24:00,63.6,55.0,29.12,WSW,246,6.0,10.0,74,0.00,,,0.00,weatherlink.com 1.10,2013-07-28 00:24:00,
2013-07-27 20:39:00,62.6,55.0,29.12,WSW,256,5.0,9.0,75,0.00,,,0.00,weatherlink.com 1.10,2013-07-28 00:39:00,
2013-07-27 20:54:00,62.4,54.0,29.13,SSE,148,5.0,11.0,75,0.00,,,0.00,weatherlink.com 1.10,2013-07-28 00:54:00,
2013-07-27 21:09:00,61.6,53.0,29.13,WSW,246,4.0,10.0,74,0.00,,,0.00,weatherlink.com 1.10,2013-07-28 01:09:00,
2013-07-27 21:24:00,61.0,53.0,29.13,SW,236,10.0,10.0,74,0.00,,,0.00,weatherlink.com 1.10,2013-07-28 01:24:00,
2013-07-27 21:39:00,60.4,52.0,29.13,WSW,249,10.0,11.0,75,0.00,,,0.00,weatherlink.com 1.10,2013-07-28 01:39:00,
2013-07-27 21:54:00,60.2,53.0,29.13,WSW,245,7.0,12.0,77,0.00,,,0.00,weatherlink.com 1.10,2013-07-28 01:54:00,
2013-07-27 22:09:00,59.7,52.0,29.14,WSW,239,5.0,11.0,76,0.00,,,0.00,weatherlink.com 1.10,2013-07-28 02:09:00,
2013-07-27 22:24:00,59.3,52.0,29.14,WSW,239,1.0,11.0,77,0.00,,,0.00,weatherlink.com 1.10,2013-07-28 02:24:00,
2013-07-27 22:40:00,58.5,52.0,29.14,SSW,193,3.0,10.0,79,0.00,,,0.00,weatherlink.com 1.10,2013-07-28 02:40:00,
2013-07-27 22:55:00,57.9,52.0,29.14,West,281,4.0,10.0,80,0.00,,,0.00,weatherlink.com 1.10,2013-07-28 02:55:00,
2013-07-27 23:10:00,57.0,51.0,29.14,West,270,5.0,12.0,81,0.00,,,0.00,weatherlink.com 1.10,2013-07-28 03:10:00,
2013-07-27 23:25:00,56.7,51.0,29.14,WSW,252,4.0,10.0,80,0.00,,,0.00,weatherlink.com 1.10,2013-07-28 03:25:00,
2013-07-27 23:40:00,56.5,51.0,29.13,West,271,2.0,7.0,81,0.00,,,0.00,weatherlink.com 1.10,2013-07-28 03:40:00,
2013-07-27 23:55:00,56.2,50.0,29.13,SW,229,5.0,9.0,81,0.00,,,0.00,weatherlink.com 1.10,2013-07-28 03:55:00,